Simultaneous Nadir Overpasses (SNOs) Predictions

Prediction of SNOs between GOES-15 and LANDSAT-8 Satellite Orbit:

Table of predicted SNOs for the next 14.0 days since TLE Epoch: 2/17/2024
Index Date Time (GOES-15) GOES-15 Lat,Lon LANDSAT-8 Lat,Lon Distance(km) Time Diff (sec)
1 02/17/2024 05:53:09 0.01, 61.43 -0.76, 65.01 406.50 80
2 02/17/2024 18:14:32 -0.01, 61.39 -0.35, 59.82 179.72 80
3 02/19/2024 17:59:41 -0.01, 61.38 0.31, 62.76 157.85 80
4 02/20/2024 06:20:56 0.01, 61.42 0.82, 57.61 432.71 80
5 02/21/2024 17:47:29 -0.01, 61.37 0.94, 65.72 495.56 80
6 02/22/2024 06:08:44 0.01, 61.40 0.19, 60.57 94.70 80
7 02/24/2024 05:59:11 0.02, 61.39 -0.42, 63.53 243.52 80
8 02/24/2024 18:20:35 -0.02, 61.34 -0.66, 58.34 341.15 80
9 02/26/2024 18:08:22 -0.02, 61.32 -0.02, 61.30 3.13 80
10 02/28/2024 17:53:28 -0.02, 61.32 0.60, 64.26 334.99 80
11 02/29/2024 06:14:43 0.02, 61.37 0.49, 59.11 256.80 80
